Le nostre stazioni meteo in Italia

Pubblicità
Il mio iltempo24.it
Luqa, Malta (16597): Temperatura & dewpoint: 15.04.2019 09:00:00 - 21.04.2019 09:00:00 (CEST)Luqa, Malta (16597): velocità del vento: 15.04.2019 09:00:00 - 21.04.2019 09:00:00 (CEST)Luqa, Malta (16597): direzione del vento: 15.04.2019 09:00:00 - 21.04.2019 09:00:00 (CEST)Luqa, Malta (16597): reduced air pressure: 15.04.2019 09:00:00 - 21.04.2019 09:00:00 (CEST)Luqa, Malta (16597): visibility: 15.04.2019 09:00:00 - 21.04.2019 09:00:00 (CEST)
Data & Tempo tt [°C] td [°C] ff [km/h] ff [kn] dd ppp [hPa] vv [km]
21.04.2019 09:00:00 16,0 13,0 44 24 ESE - 10
21.04.2019 08:00:00 15,4 12,5 35 19 ESE 1018,3 10
21.04.2019 07:00:00 15,0 12,0 31 17 ESE - 10
21.04.2019 06:00:00 15,0 12,0 35 19 ESE - 10
21.04.2019 05:00:00 14,7 12,1 34 18 ESE 1017,9 10
21.04.2019 04:00:00 15,0 12,0 31 17 ESE - 10
21.04.2019 03:00:00 15,0 12,0 35 19 SE - 10
21.04.2019 02:00:00 14,9 12,1 35 19 ESE 1019,4 10
21.04.2019 01:00:00 15,0 12,0 35 19 SE - 10
21.04.2019 00:00:00 15,0 12,0 37 20 ESE - 10
20.04.2019 23:00:00 15,0 11,6 37 20 ESE 1020,2 10
20.04.2019 22:00:00 15,0 12,0 35 19 ESE - 10
20.04.2019 21:00:00 15,0 12,0 34 18 ESE - 10
20.04.2019 20:00:00 15,1 12,4 39 21 ESE 1020,4 10
20.04.2019 19:00:00 15,0 12,0 34 18 SE - 10
20.04.2019 18:00:00 16,0 12,0 35 19 SE - 10
20.04.2019 17:00:00 16,4 12,4 39 21 SE 1021,2 10
20.04.2019 16:00:00 17,0 13,0 34 18 SE - 10
20.04.2019 15:00:00 18,0 13,0 29 16 SE - 10
20.04.2019 14:00:00 18,0 12,8 34 18 SE 1022,8 10
20.04.2019 13:00:00 18,0 12,0 35 19 SE - 10
20.04.2019 12:00:00 18,0 13,0 29 16 ESE - 10
20.04.2019 11:00:00 17,1 12,5 31 17 ESE 1023,9 10
20.04.2019 10:00:00 17,0 13,0 28 15 SE - 10
20.04.2019 09:00:00 16,0 12,0 24 13 SE - 10
20.04.2019 08:00:00 14,9 12,3 24 13 ESE 1022,9 10
20.04.2019 07:00:00 14,0 12,0 18 10 ESE - 10
20.04.2019 06:00:00 14,0 12,0 22 12 SE - 10
20.04.2019 05:00:00 13,9 12,1 18 10 ESE 1022,8 10
20.04.2019 04:00:00 14,0 12,0 24 13 ESE - 10
20.04.2019 03:00:00 14,0 12,0 13 7 ESE - 10
20.04.2019 02:00:00 14,6 12,3 18 10 ESE 1024,1 10
20.04.2019 01:00:00 15,0 12,0 16 9 ESE - 10
20.04.2019 00:00:00 15,0 12,0 13 7 ESE - 10
19.04.2019 23:00:00 14,5 12,0 15 8 ESE 1025,3 10
19.04.2019 22:00:00 15,0 12,0 15 8 ESE - 10
19.04.2019 21:00:00 15,0 12,0 18 10 ESE - 10
19.04.2019 20:00:00 15,2 12,0 18 10 ESE 1024,5 10
19.04.2019 19:00:00 16,0 12,0 16 9 ESE - 10
19.04.2019 18:00:00 16,0 12,0 22 12 ESE - 10
19.04.2019 17:00:00 17,4 12,5 26 14 SE 1024,4 10
19.04.2019 16:00:00 17,0 12,0 26 14 ESE - 10
19.04.2019 15:00:00 18,0 12,0 22 12 ESE - 10
19.04.2019 14:00:00 18,1 12,3 24 13 ESE 1025,3 10
19.04.2019 13:00:00 18,0 12,0 26 14 ESE - 10
19.04.2019 12:00:00 18,0 13,0 31 17 ESE - 10
19.04.2019 11:00:00 17,3 12,6 22 12 ESE 1025,3 10
19.04.2019 10:00:00 17,0 12,0 24 13 E - 10
19.04.2019 09:00:00 16,0 12,0 24 13 E - 10
19.04.2019 08:00:00 14,9 13,0 24 13 ESE 1023,4 10
19.04.2019 07:00:00 14,0 13,0 18 10 ESE - 10
19.04.2019 06:00:00 14,0 13,0 16 9 ESE - 10
19.04.2019 05:00:00 14,0 12,7 16 9 ESE 1022,5 10
19.04.2019 04:00:00 14,0 13,0 16 9 ESE - 10
19.04.2019 03:00:00 14,0 13,0 15 8 ESE - 10
19.04.2019 02:00:00 14,3 12,8 15 8 ESE 1023,0 10
19.04.2019 01:00:00 14,0 13,0 15 8 ESE - 10
19.04.2019 00:00:00 15,0 13,0 13 7 ESE - 10
18.04.2019 23:00:00 14,5 12,5 13 7 ESE 1022,6 10
18.04.2019 22:00:00 15,0 12,0 13 7 ESE - 10
18.04.2019 21:00:00 15,0 12,0 11 6 SE - 10
18.04.2019 20:00:00 14,6 11,1 15 8 SE 1020,9 10
18.04.2019 19:00:00 16,0 11,0 15 8 SSE - 10
18.04.2019 18:00:00 17,0 11,0 13 7 SE - 10
18.04.2019 17:00:00 18,2 11,2 13 7 S 1020,5 10
18.04.2019 16:00:00 19,0 11,0 11 6 SE - 10
18.04.2019 15:00:00 19,0 10,0 16 9 SSE - 10
18.04.2019 14:00:00 19,2 9,3 13 7 SSE 1021,2 10
18.04.2019 13:00:00 19,0 9,0 16 9 SE - 10
18.04.2019 12:00:00 18,0 11,0 16 9 ESE - 10
18.04.2019 11:00:00 17,9 11,4 15 8 ESE 1021,6 10
18.04.2019 10:00:00 17,0 12,0 13 7 SE - 10
18.04.2019 09:00:00 17,0 12,0 9 5 E - 10
18.04.2019 08:00:00 14,1 13,3 2 1 - 1020,7 10
18.04.2019 07:00:00 12,0 11,0 2 1 OSO - 10
18.04.2019 06:00:00 11,0 11,0 5 3 NNO - 10
18.04.2019 05:00:00 11,1 10,1 4 2 ONO 1020,2 10
18.04.2019 04:00:00 11,0 10,0 4 2 NNO - 10
18.04.2019 03:00:00 12,0 10,0 4 2 N - 10
18.04.2019 02:00:00 11,9 10,0 5 3 ONO 1020,8 10
18.04.2019 01:00:00 13,0 11,0 2 1 NE - 10
18.04.2019 00:00:00 13,0 10,0 4 2 NO - 10
17.04.2019 23:00:00 13,0 10,5 5 3 O 1021,1 10
17.04.2019 22:00:00 14,0 10,0 4 2 ONO - 10
17.04.2019 21:00:00 14,0 10,0 8 4 ONO - 10
17.04.2019 20:00:00 15,3 10,4 5 3 O 1019,6 10
17.04.2019 19:00:00 16,0 10,0 8 4 SO - 10
17.04.2019 18:00:00 17,0 10,0 9 5 SSO - 10
17.04.2019 17:00:00 17,9 9,7 9 5 O 1019,1 10
17.04.2019 16:00:00 18,0 10,0 13 7 SO - 10
17.04.2019 15:00:00 18,0 9,0 9 5 SO - 10
17.04.2019 14:00:00 18,6 10,6 15 8 SSO 1019,9 10
17.04.2019 13:00:00 18,0 10,0 13 7 SSO - 10
17.04.2019 12:00:00 18,0 10,0 13 7 SSO - 10
17.04.2019 11:00:00 17,2 11,5 11 6 S 1020,2 10
17.04.2019 10:00:00 17,0 12,0 13 7 S - 10
17.04.2019 09:00:00 16,0 12,0 5 3 S - 10
17.04.2019 08:00:00 14,1 12,6 5 3 - 1020,3 10
17.04.2019 07:00:00 12,0 11,0 2 1 SSO - 10
17.04.2019 06:00:00 11,0 10,0 5 3 NO - 10
17.04.2019 05:00:00 10,6 9,2 5 3 NNO 1019,1 10
17.04.2019 04:00:00 11,0 9,0 4 2 E - 10
17.04.2019 03:00:00 12,0 10,0 4 2 S - 10
17.04.2019 02:00:00 12,8 10,0 4 2 S 1019,7 10
17.04.2019 01:00:00 13,0 10,0 8 4 S - 10
17.04.2019 00:00:00 13,0 10,0 5 3 SSO - 10
16.04.2019 23:00:00 13,3 9,7 8 4 S 1020,7 10
16.04.2019 22:00:00 13,0 10,0 9 5 SSO - 10
16.04.2019 21:00:00 14,0 10,0 8 4 S - 10
16.04.2019 20:00:00 14,5 10,4 2 1 SO 1020,6 10
16.04.2019 19:00:00 15,0 10,0 11 6 SSO - 10
16.04.2019 18:00:00 16,0 10,0 11 6 S - 10
16.04.2019 17:00:00 16,9 8,6 13 7 SO 1019,8 10
16.04.2019 16:00:00 17,0 9,0 16 9 SSO - 10
16.04.2019 15:00:00 17,0 9,0 18 10 SO - 10
16.04.2019 14:00:00 17,9 9,7 16 9 SO 1021,0 10
16.04.2019 13:00:00 17,0 10,0 15 8 SO - 10
16.04.2019 12:00:00 17,0 11,0 15 8 SSO - 10
16.04.2019 11:00:00 16,6 10,4 13 7 SO 1021,0 10
16.04.2019 10:00:00 16,0 11,0 9 5 SSO - 10
16.04.2019 09:00:00 16,0 11,0 8 4 OSO - 10
16.04.2019 08:00:00 13,4 11,4 4 2 SO 1019,9 10
16.04.2019 07:00:00 10,0 9,0 5 3 SO - 10
16.04.2019 06:00:00 9,0 8,0 4 2 NNO - 10
16.04.2019 05:00:00 9,8 8,2 4 2 S 1018,5 10
16.04.2019 04:00:00 10,0 8,0 2 1 E - 10
16.04.2019 03:00:00 10,0 8,0 4 2 E - 10
16.04.2019 02:00:00 10,8 8,6 2 1 ENE 1018,4 10
16.04.2019 01:00:00 11,0 9,0 2 1 - - 10
16.04.2019 00:00:00 11,0 8,0 2 1 E - 10
15.04.2019 23:00:00 12,8 8,9 4 2 SE 1018,0 10
15.04.2019 22:00:00 13,0 9,0 8 4 ESE - 10
15.04.2019 21:00:00 13,0 9,0 15 8 N - 10
15.04.2019 20:00:00 14,0 8,3 22 12 NNO 1015,4 10
15.04.2019 19:00:00 15,0 8,0 26 14 NNO - 10
15.04.2019 18:00:00 16,0 8,0 24 13 N - 10
15.04.2019 17:00:00 16,8 9,2 37 20 NNO 1012,6 10
15.04.2019 16:00:00 17,0 8,0 37 20 NO - 10
15.04.2019 15:00:00 16,0 9,0 44 24 NO - 10
15.04.2019 14:00:00 14,9 9,7 50 27 NO 1011,9 10
15.04.2019 13:00:00 14,0 10,0 26 14 NO - 10
15.04.2019 12:00:00 14,0 9,0 34 18 NO - 8
15.04.2019 11:00:00 16,0 8,0 48 26 NNO 1011,6 10
15.04.2019 10:00:00 16,0 7,0 44 24 NO - 10
15.04.2019 09:00:00 15,0 8,0 34 18 NO - 10

tt = Temperatura
td = dewpoint
ff = velocità del vento
dd = direzione del vento
ppp = reduced air pressure
vv = visibility

Stazioni seguenti

WeatherPro
AMSI
MeteoEarth